Madrid Cuatro Vientos, Spain

6:51 PM CET on November 23, 2017 (GMT +0100)
Madrid Cuatro Vientos

Weather History for LEVS - July, 2013

Change the Weather History Date:

Thursday, July 18, 2013

  Actual Average Record
Temperature  
Mean Temperature 84 °F -  
Max Temperature 96 °F 86 °F 99 °F (2016)
Min Temperature 73 °F 63 °F 57 °F (2005)
Cooling Degree Days 20    
Growing Degree Days 34 (Base 50)    
Moisture  
Dew Point 62 °F    
Average Humidity 47    
Maximum Humidity 65    
Minimum Humidity 32    
Precipitation  
Precipitation 0.00 in - - ()
Sea Level Pressure  
Sea Level Pressure 30.10 in    
Wind  
Wind Speed 4 mph ()    
Max Wind Speed 9 mph    
Max Gust Speed -    
Visibility 6.2 miles    
Events      
Averages and records for this station are not official NWS values.
T = Trace of Precipitation, MM = Missing Value Source: Averaged Metar Reports

Daily Weather History Graph

Daily Weather History Graph

Search for Another Location

Airport or City:

Trip Planner

Search our weather history database for the weather conditions in past years. The results will help you decide how hot, cold, wet, or windy it might be!

Date:

Astronomy

Jul. 18, 2013 Rise Set
Actual Time 7:00 AM CEST 9:42 PM CEST
Civil Twilight 6:28 AM CEST 10:13 PM CEST
Nautical Twilight 5:48 AM CEST 10:53 PM CEST
Astronomical Twilight 5:03 AM CEST 11:38 PM CEST
Moon 5:22 PM CEST (7/18) 2:39 AM CEST (7/18)
Length of Visible Light 15h 45m
Length of Day
14h 41m
Waxing Gibbous, 75% of the Moon is Illuminated
Jul 18
Waxing Gibbous
Jul 22
Full
Jul 29
Last Quarter
Aug 6
New
Aug 14
First Quarter

Hourly Weather History & Observations

Time (CEST) Temp. Heat Index Dew Point Humidity Pressure Visibility Wind Dir Wind Speed Gust Speed Precip Events Conditions
7:00 AM 73.4 °F - 59.0 °F 61% 30.15 in - North 6.9 mph - N/A   Clear
7:30 AM 73.4 °F - 59.0 °F 61% 30.15 in - North 6.9 mph - N/A   Clear
8:00 AM 73.4 °F - 59.0 °F 61% 30.15 in - North 6.9 mph - N/A   Clear
8:30 AM 73.4 °F - 60.8 °F 65% 30.15 in - Variable 1.2 mph - N/A   Clear
9:00 AM 73.4 °F - 60.8 °F 65% 30.15 in - ENE 4.6 mph - N/A   Clear
9:30 AM 75.2 °F - 62.6 °F 65% 30.15 in - NE 3.5 mph - N/A   Clear
10:00 AM 77.0 °F - 62.6 °F 61% 30.15 in - East 4.6 mph - N/A   Clear
10:30 AM 78.8 °F - 62.6 °F 57% 30.15 in - East 3.5 mph - N/A   Clear
11:00 AM 78.8 °F - 62.6 °F 57% 30.15 in - ENE 3.5 mph - N/A   Clear
11:30 AM 82.4 °F 83.9 °F 64.4 °F 54% 30.15 in - ENE 3.5 mph - N/A   Clear
12:00 PM 82.4 °F 83.9 °F 64.4 °F 54% 30.15 in - East 4.6 mph - N/A   Clear
12:30 PM 82.4 °F 83.4 °F 62.6 °F 51% 30.15 in - Variable 1.2 mph - N/A   Clear
1:00 PM 87.8 °F 90.4 °F 66.2 °F 49% 30.12 in 6.2 mi Variable 3.5 mph - N/A   Partly Cloudy
1:30 PM 87.8 °F 90.4 °F 66.2 °F 49% 30.12 in 6.2 mi Variable 1.2 mph - N/A   Partly Cloudy
2:00 PM 89.6 °F 91.1 °F 64.4 °F 43% 30.12 in 6.2 mi Variable 2.3 mph - N/A   Partly Cloudy
2:30 PM 91.4 °F 93.2 °F 64.4 °F 41% 30.12 in 6.2 mi Variable 5.8 mph - N/A   Partly Cloudy
3:00 PM 93.2 °F 94.1 °F 62.6 °F 36% 30.09 in 6.2 mi SW 8.1 mph - N/A   Partly Cloudy
3:30 PM 95.0 °F 96.0 °F 62.6 °F 34% 30.09 in 6.2 mi WSW 6.9 mph - N/A   Partly Cloudy
4:00 PM 93.2 °F 92.6 °F 59.0 °F 32% 30.06 in 6.2 mi SSW 8.1 mph - N/A   Partly Cloudy
4:30 PM 96.8 °F 98.0 °F 62.6 °F 32% 30.06 in 6.2 mi Variable 3.5 mph - N/A   Partly Cloudy
5:00 PM 95.0 °F 95.2 °F 60.8 °F 32% 30.06 in 6.2 mi Variable 3.5 mph - N/A   Partly Cloudy
5:30 PM 95.0 °F 95.2 °F 60.8 °F 32% 30.06 in 6.2 mi West 9.2 mph - N/A   Partly Cloudy
6:00 PM 89.6 °F 88.9 °F 59.0 °F 36% 30.06 in 6.2 mi West 6.9 mph - N/A   Partly Cloudy
6:30 PM 91.4 °F 91.4 °F 60.8 °F 36% 30.04 in 6.2 mi North 9.2 mph - N/A   Scattered Clouds
7:00 PM 89.6 °F 90.1 °F 62.6 °F 40% 30.04 in 6.2 mi North 8.1 mph - N/A   Scattered Clouds
7:30 PM 89.6 °F 90.1 °F 62.6 °F 40% 30.04 in 6.2 mi NNE 5.8 mph - N/A   Scattered Clouds
8:00 PM 89.6 °F 90.1 °F 62.6 °F 40% 30.04 in 6.2 mi North 4.6 mph - N/A   Partly Cloudy
8:30 PM 87.8 °F 87.6 °F 60.8 °F 40% 30.04 in 6.2 mi North 3.5 mph - N/A   Partly Cloudy
9:00 PM 87.8 °F 87.6 °F 60.8 °F 40% 30.04 in 6.2 mi North 3.5 mph - N/A   Partly Cloudy
9:30 PM 84.2 °F 84.4 °F 60.8 °F 45% 30.04 in 6.2 mi North 3.5 mph - N/A   Partly Cloudy
10:00 PM 82.4 °F 82.9 °F 60.8 °F 48% 30.04 in 6.2 mi Variable 2.3 mph - N/A   Partly Cloudy